EHI
0 0 0 0 0 0 0 0 0 0 0 0 0 0 0 0 0 0 0 3 10 18 20 23 24 22 19 16 15 15 14 13 11 10 11 11 10 9 8 7 7 5 2 1 0 0 0 0 0
0 0 0 0 0 0 0 0 0 0 0 0 0 0 0 0 0 0 0 4 13 20 21 22 24 22 18 16 15 15 13 12 10 10 10 10 9 8 8 8 7 4 2 1 0 0 0 0 0
0 0 0 0 0 0 0 0 0 0 0 0 0 0 0 0 0 1 2 7 16 22 22 22 25 23 18 15 15 14 13 11 9 9 8 8 7 7 8 9 7 3 1 1 0 0 0 0 0
0 0 0 0 0 0 0 0 0 0 0 0 0 0 0 1 1 2 6 12 19 23 24 25 26 24 20 17 15 14 12 10 9 9 9 8 7 7 8 8 5 2 0 0 0 0 0 0 0
0 0 0 0 0 0 0 0 0 0 0 0 0 0 1 2 2 3 9 17 22 25 25 27 29 25 20 17 15 13 12 11 10 11 11 9 8 8 7 6 3 1 0 0 0 0 0 0 0
0 0 0 0 0 0 0 0 0 0 0 0 0 0 2 3 3 5 10 17 22 25 26 27 27 21 17 15 13 13 12 12 12 13 12 11 10 8 5 3 1 0 0 0 0 0 0 0 0
0 0 0 0 0 0 0 0 0 0 0 0 0 1 4 5 6 7 11 17 22 24 25 25 22 16 13 12 11 12 12 12 13 13 12 11 10 7 4 1 0 0 0 0 0 0 0 0 0
0 0 0 0 0 0 0 0 0 0 0 0 0 2 5 8 11 13 15 18 21 23 25 24 19 14 12 11 10 10 11 12 13 12 10 8 7 5 2 0 0 0 0 0 0 0 0 0 0
0 0 0 0 0 0 0 0 0 0 0 0 1 3 6 9 15 18 18 18 19 21 22 21 18 15 13 12 11 10 11 11 11 9 6 4 3 2 1 0 0 0 0 0 0 0 0 0 0
0 0 0 0 0 0 0 0 0 0 0 0 1 3 6 9 14 17 17 17 18 18 18 17 15 14 14 14 12 10 10 10 9 6 3 2 0 0 0 0 0 0 0 0 0 0 0 0 0
0 0 0 0 0 0 0 0 0 0 0 0 1 3 5 7 11 13 14 16 17 16 16 15 13 12 13 13 11 9 9 9 6 4 3 1 0 0 0 0 0 0 0 0 0 0 0 0 0
0 0 0 0 0 0 0 0 0 0 0 0 1 2 4 5 7 10 12 16 17 16 14 13 12 11 11 11 10 8 7 7 5 3 2 1 0 0 0 0 0 0 0 0 0 0 0 0 0
0 0 0 0 0 0 0 0 0 0 0 0 1 3 5 6 7 8 11 15 16 15 12 10 10 9 8 9 9 8 7 6 4 3 2 1 0 0 0 0 0 0 0 0 0 0 0 0 0
0 0 0 0 0 0 0 0 0 0 0 0 2 4 6 8 9 10 12 14 15 14 11 8 6 6 6 7 7 7 6 6 4 3 1 0 0 0 0 0 0 0 0 0 0 0 0 0 0
0 0 0 0 0 0 0 0 0 0 0 0 1 4 5 8 10 11 12 12 12 12 10 6 4 4 4 5 6 6 6 6 4 2 1 0 0 0 0 0 0 0 0 0 0 0 0 0 0
0 0 0 0 0 0 0 0 0 0 0 0 1 2 3 5 8 9 9 9 9 9 7 6 4 3 3 3 4 5 6 5 3 1 0 0 0 0 0 0 0 0 0 0 0 0 0 0 0
0 0 0 0 0 0 0 0 0 0 0 1 1 1 3 5 7 8 8 7 5 5 6 6 5 4 3 3 3 3 3 3 2 1 0 0 0 0 0 0 0 0 0 0 0 0 0 0 0
0 0 0 0 0 0 0 0 0 0 0 1 1 1 2 4 6 7 8 6 3 3 5 5 4 3 3 2 2 1 1 1 1 0 0 0 0 0 0 0 0 0 0 0 0 0 0 0 0
0 0 0 0 0 0 0 0 0 0 0 1 1 1 1 2 4 7 7 6 3 3 3 3 3 2 1 1 1 0 0 0 0 0 0 0 0 0 0 0 0 0 0 0 0 0 0 0 0
0 0 0 0 0 0 0 0 0 0 0 0 1 2 1 1 2 5 5 4 3 3 2 1 1 1 0 0 0 0 0 0 0 0 0 0 0 0 0 0 0 0 0 0 0 0 0 0 0
0 0 0 0 0 0 0 0 0 0 0 0 1 1 1 0 1 2 3 3 3 3 2 1 0 0 0 0 0 0 0 0 0 0 0 0 0 0 0 0 0 0 0 0 0 0 0 0 0
0 0 0 0 0 0 0 0 0 0 0 0 0 0 0 0 0 2 3 3 3 3 2 1 0 0 0 0 0 0 0 0 0 0 0 0 0 0 0 0 0 0 0 0 0 0 0 0 0
0 0 0 0 0 0 0 0 0 0 0 0 0 0 0 0 0 1 3 3 3 2 1 1 0 0 0 0 0 0 0 0 0 0 0 0 0 0 0 0 0 0 0 0 0 0 0 0 0
0 0 0 0 0 0 0 0 0 0 0 0 0 0 0 0 0 1 2 3 3 1 0 0 0 0 0 0 0 0 0 0 0 0 0 0 0 0 0 0 0 0 0 0 0 0 0 0 0
0 0 0 0 0 0 0 0 0 0 0 0 0 0 0 0 0 0 1 4 4 2 0 0 0 0 0 0 0 0 0 0 0 0 0 0 0 0 0 0 0 0 0 0 0 0 0 0 0
0 0 0 0 0 0 0 0 0 0 0 0 0 0 0 0 0 0 1 4 5 3 1 0 0 0 0 0 0 0 0 0 0 0 0 0 0 0 0 0 0 0 0 0 0 0 0 0 0
0 0 0 0 0 0 0 0 0 0 0 0 0 0 0 0 0 0 0 2 4 4 2 1 0 0 0 0 0 0 0 0 0 0 0 0 0 0 0 0 0 0 0 0 0 0 0 0 0
0 0 0 0 0 0 0 0 0 0 0 0 0 0 0 0 0 0 0 1 3 4 3 1 0 0 0 0 0 0 0 0 0 0 0 0 0 0 0 0 0 0 0 0 0 0 0 0 0
0 0 0 0 0 0 0 0 0 0 0 0 0 0 0 0 0 0 0 1 3 4 3 2 1 0 0 0 0 0 0 0 0 0 0 0 0 0 0 0 0 0 0 0 0 0 0 0 0
0 0 0 0 0 0 0 0 0 0 0 0 0 0 0 0 0 0 0 1 2 3 3 2 1 0 0 0 0 0 0 0 0 0 0 0 0 0 0 0 0 0 0 0 0 0 0 0 0
Wind_Speed
8 4 2 3 4 2 4 5 3 2 2 2 1 3 5 5 5 4 0 5 7 8 8 10 12 13 13 13 12 12 12 12 12 12 13 13 13 13 12 13 13 13 13 13 13 13 13 13 13
3 3 4 4 3 3 5 4 4 4 3 0 1 1 2 1 0 2 2 4 8 8 8 8 12 13 13 13 13 12 12 12 12 12 12 12 12 12 12 12 13 12 12 13 12 12 13 13 13
2 3 3 3 3 7 5 3 4 3 2 1 0 0 2 1 1 2 3 7 8 7 6 8 12 13 13 13 13 13 12 12 12 11 12 12 12 12 12 12 12 12 12 12 12 12 12 12 12
2 3 3 2 7 6 3 2 2 2 2 0 2 0 1 1 0 2 6 8 8 7 6 8 12 13 13 13 12 12 12 12 11 11 11 11 11 11 11 12 12 12 12 12 11 11 11 11 11
3 3 2 3 7 4 2 3 2 1 1 1 1 1 1 3 2 4 7 8 9 7 6 8 11 13 12 12 12 12 12 11 11 11 10 11 11 11 11 11 11 11 11 11 11 11 11 11 11
2 2 3 6 7 3 2 3 2 2 2 1 1 1 1 1 2 4 6 7 7 8 6 7 10 11 11 11 11 11 11 11 11 11 10 10 11 12 11 11 11 10 10 10 10 10 10 10 10
2 2 4 5 4 3 2 2 1 2 3 3 2 2 1 1 1 4 5 6 6 6 6 5 6 8 9 10 10 10 10 10 10 10 10 9 10 11 11 11 11 10 9 9 9 10 10 10 9
2 2 2 3 4 3 2 2 1 2 4 2 2 3 3 2 2 5 5 5 5 5 5 5 5 5 5 5 8 9 9 9 9 9 9 8 8 9 9 9 9 9 9 9 8 8 9 9 9
2 1 4 4 3 2 2 2 2 2 1 1 0 1 1 3 6 7 5 4 4 4 3 4 5 4 4 4 5 7 8 8 8 7 8 7 4 4 5 6 8 8 8 8 8 8 8 8 8
2 3 4 2 1 1 3 3 3 2 2 1 3 3 2 5 6 8 8 7 6 5 3 4 4 4 4 4 3 3 4 4 4 4 4 3 3 3 4 6 7 7 7 7 8 8 7 6 3
1 2 1 2 3 3 4 5 4 1 2 2 2 2 2 5 6 6 7 7 7 5 4 4 4 5 4 3 3 2 2 3 3 4 4 4 3 3 3 2 3 3 5 4 5 4 3 3 2
1 2 2 3 4 4 4 5 4 3 4 4 3 2 3 4 5 5 6 6 5 5 4 4 4 4 4 4 3 2 2 2 2 3 4 4 3 2 2 2 2 2 2 3 3 2 3 3 3
1 2 3 4 4 5 5 5 5 6 5 3 1 1 3 3 3 3 3 4 4 5 4 4 5 4 4 4 3 3 3 2 2 3 3 4 3 3 2 2 2 2 2 2 2 2 2 2 2
2 2 3 4 4 4 5 6 4 6 3 1 0 2 3 3 3 2 2 3 4 4 4 4 5 4 4 3 3 3 3 3 2 3 4 4 4 3 3 2 2 2 2 2 2 3 2 1 1
1 2 4 3 4 3 3 6 5 6 3 2 2 2 2 2 2 3 3 3 4 4 4 4 5 4 4 4 3 3 3 3 2 2 4 4 4 4 3 3 2 2 2 3 2 2 2 1 1
1 1 3 3 2 3 1 8 6 4 2 3 3 2 3 3 2 2 2 2 2 3 4 5 4 4 4 3 3 3 3 3 2 2 2 3 4 4 4 3 2 2 2 2 3 2 2 1 1
2 1 4 5 2 1 2 7 6 4 1 3 2 2 3 3 2 2 2 2 2 3 3 4 4 4 3 3 2 2 2 3 2 2 2 2 3 5 4 3 3 3 2 2 2 1 1 1 0
2 2 3 5 3 2 3 8 8 6 2 3 2 2 2 3 3 2 2 2 2 2 3 3 3 3 3 3 2 2 1 1 2 2 2 3 3 4 4 3 3 3 3 2 2 2 1 1 1
3 3 5 6 4 3 5 8 9 6 3 3 3 3 3 3 3 2 1 1 2 2 3 3 3 3 3 3 2 2 2 2 2 1 2 3 3 3 4 3 3 3 3 3 3 2 2 1 1
3 4 6 6 4 2 5 9 8 5 4 4 4 4 4 3 3 2 2 1 2 2 3 4 4 4 3 2 2 2 2 1 1 1 1 2 2 2 3 4 3 4 3 3 3 2 2 1 1
4 5 5 5 6 2 4 7 5 3 3 3 4 4 3 3 3 2 2 1 1 1 2 3 4 3 3 3 3 2 2 1 1 0 1 1 2 2 2 3 3 3 4 4 3 3 4 2 0
5 4 4 5 3 4 1 5 5 3 3 4 4 4 3 3 2 2 2 2 1 2 2 2 3 3 3 3 4 4 3 3 2 1 1 1 2 2 2 3 3 3 3 3 3 3 2 4 2
4 3 3 3 3 4 3 3 7 2 4 6 5 4 3 3 2 2 2 2 2 1 1 1 2 2 3 3 4 4 3 1 1 2 2 1 1 2 2 2 3 3 2 3 3 2 2 2 3
2 2 2 1 0 4 5 4 7 4 5 6 5 4 3 2 2 2 2 2 1 1 0 0 1 2 2 3 4 4 4 3 3 2 2 1 1 1 2 2 2 3 2 2 2 2 3 3 3
2 2 3 4 2 5 2 3 8 5 4 4 5 4 3 2 2 2 2 2 2 1 0 0 0 0 1 2 3 4 4 5 5 4 3 3 2 1 2 2 2 2 2 2 2 2 2 3 3
1 3 3 3 4 4 2 5 7 3 3 3 3 2 2 1 2 3 3 3 2 2 1 0 0 1 1 2 2 3 3 3 2 3 2 3 2 2 2 1 2 2 3 3 2 2 2 2 3
1 2 2 2 1 3 5 6 8 3 4 4 3 2 3 3 3 3 3 3 2 2 2 2 2 2 1 1 1 2 3 3 3 2 2 1 1 1 2 2 2 2 2 3 3 2 2 2 2
2 2 2 2 1 4 5 5 5 5 5 4 4 4 4 3 3 3 3 2 2 2 1 1 1 2 2 1 1 1 2 3 3 3 2 2 2 2 2 2 2 2 2 3 3 3 3 3 2
1 1 1 1 2 2 4 7 3 4 4 4 5 5 4 4 4 3 3 1 1 1 1 1 1 1 1 1 0 0 1 2 2 3 3 2 2 3 3 3 2 2 2 2 3 3 3 3 3
2 3 3 2 3 2 3 9 2 2 3 4 5 5 4 4 4 3 2 1 1 1 1 1 1 1 1 0 0 1 1 1 2 2 2 2 2 3 3 3 2 2 2 2 3 3 3 4 3
Wind_Direction
339 346 41 55 60 60 224 236 226 236 236 237 191 163 168 170 171 205 340 140 132 146 156 157 151 146 141 134 129 125 119 116 114 115 117 117 114 113 113 110 107 104 102 100 100 100 98 96 93
331 356 49 65 116 202 244 233 225 224 216 221 42 114 127 231 223 120 122 149 141 146 152 154 151 147 143 138 133 129 123 119 117 116 116 116 117 116 114 111 108 105 102 99 97 99 99 97 95
348 43 84 97 170 200 224 235 232 263 257 167 97 41 160 218 197 171 163 146 138 144 148 152 147 149 146 141 137 133 129 124 121 118 118 118 118 118 115 111 108 105 103 101 99 99 100 98 97
51 50 65 133 220 222 209 253 261 281 302 340 137 343 291 333 222 172 143 141 139 143 144 150 147 147 146 144 140 136 132 129 125 123 120 122 119 118 116 112 109 107 105 104 103 102 100 100 99
56 89 123 225 235 238 232 283 291 268 273 307 144 177 285 341 27 118 137 143 145 143 142 149 146 146 145 144 144 140 135 132 129 127 124 126 122 118 117 115 112 109 108 106 105 104 102 99 100
56 95 163 222 237 252 255 279 306 289 278 310 134 165 257 341 70 129 142 145 146 145 144 148 145 144 148 147 142 143 139 136 133 129 128 125 127 122 118 117 113 110 111 110 108 107 105 102 100
114 136 199 215 236 256 259 284 259 270 272 252 179 151 258 303 134 136 135 134 136 139 138 138 143 143 147 146 143 139 139 139 136 131 128 122 125 125 123 119 115 111 108 108 110 109 107 103 100
118 120 213 218 222 250 300 298 257 235 255 263 153 161 215 227 143 121 116 124 130 132 134 135 134 134 134 140 141 137 134 132 131 128 123 116 119 122 123 121 120 117 114 109 109 113 111 103 100
90 131 222 215 208 247 329 304 309 308 250 304 276 232 252 148 137 122 116 114 134 137 134 137 134 129 126 128 131 133 131 125 120 120 119 113 111 112 113 114 117 117 116 113 110 105 111 105 99
102 200 223 227 223 297 317 304 304 337 329 332 331 336 95 139 146 147 152 157 161 162 156 144 141 138 133 132 117 122 120 118 113 111 115 113 108 105 104 106 111 113 110 109 108 104 97 94 84
122 203 236 309 326 318 309 309 315 273 273 258 276 294 171 159 164 170 170 170 172 170 163 148 148 145 141 132 125 112 118 116 112 116 115 109 106 104 95 97 94 91 90 86 89 83 76 77 75
157 252 258 295 316 321 307 305 306 267 259 287 264 205 166 171 181 185 181 175 167 164 166 151 142 145 141 137 137 131 125 127 134 138 132 127 121 116 120 111 102 91 94 98 89 88 82 82 80
232 263 293 292 298 295 297 287 281 277 291 317 343 150 169 182 199 198 181 168 160 163 166 161 150 149 144 140 148 142 145 145 152 152 146 143 141 136 131 129 119 112 111 116 112 107 99 91 85
235 264 298 306 298 294 286 286 283 282 304 342 65 198 197 193 200 191 174 171 174 172 172 160 159 157 148 155 156 157 156 157 157 165 161 154 151 151 141 142 135 129 129 126 122 122 116 111 107
293 317 319 297 276 279 296 292 260 274 276 255 236 238 229 225 207 199 202 194 183 179 167 166 168 160 157 159 167 159 162 160 166 168 165 162 157 157 157 148 152 151 136 125 113 103 96 96 89
21 345 295 300 291 281 245 269 280 285 247 242 236 227 242 243 232 219 211 201 183 177 171 170 167 159 159 160 164 162 165 165 170 166 164 170 166 159 157 156 156 156 139 133 132 127 114 97 87
23 286 275 303 310 296 215 266 296 302 265 268 264 255 252 250 261 250 231 211 187 182 181 171 161 161 160 161 158 162 164 167 165 166 163 170 176 169 164 163 157 154 145 142 149 130 132 139 118
228 252 275 283 306 311 265 272 294 306 288 260 264 267 268 257 257 255 248 228 191 177 183 165 153 156 154 147 140 141 141 166 158 173 182 173 176 174 164 161 161 157 155 156 151 140 104 123 146
208 235 272 277 282 289 263 277 288 292 287 271 267 272 268 265 268 267 256 227 175 156 165 165 153 156 153 154 156 164 181 186 175 187 190 180 170 173 170 168 167 165 167 174 163 150 130 83 71
241 257 272 287 295 280 274 276 275 268 263 254 255 272 265 288 306 297 292 247 184 184 179 174 172 171 170 171 165 173 156 171 170 171 177 179 168 171 178 171 178 174 164 159 165 160 148 106 98
259 242 254 275 314 307 283 284 267 260 256 275 272 270 257 243 261 289 290 280 223 205 208 189 182 174 168 156 137 116 101 101 105 149 188 189 179 172 178 179 177 179 173 175 180 178 168 170 190
267 255 256 276 304 295 281 282 275 268 275 283 286 273 254 258 265 284 309 316 290 256 251 198 173 159 159 156 148 148 163 181 197 177 201 188 184 181 175 181 179 180 177 175 183 179 179 164 176
245 277 270 272 251 282 269 246 277 287 269 273 274 270 258 258 258 276 289 279 272 266 252 188 157 159 159 161 167 167 168 169 148 130 141 182 180 184 171 179 183 180 179 181 175 168 169 175 176
258 334 328 319 45 269 247 219 273 249 247 270 273 278 272 277 277 275 278 287 291 315 339 134 150 171 172 174 175 175 176 158 144 158 177 181 196 199 175 172 187 185 182 187 182 174 171 180 178
36 53 2 348 334 258 258 233 255 270 261 256 261 271 270 262 270 279 282 290 291 296 312 54 124 212 203 190 188 184 183 178 178 185 192 191 194 221 212 186 184 186 186 183 171 173 179 187 189
242 162 177 232 248 285 292 248 262 283 286 285 263 268 285 289 286 285 269 253 256 256 234 176 197 253 254 224 215 190 179 183 185 192 192 201 205 207 197 183 185 187 179 176 169 180 193 185 194
172 198 202 158 283 278 273 285 297 310 316 324 316 302 294 286 284 283 284 273 256 246 237 217 220 236 247 250 227 184 181 181 178 183 183 189 193 186 162 175 174 184 180 177 174 185 196 193 207
173 155 98 151 229 275 284 275 274 297 297 312 311 308 300 297 292 294 286 285 288 273 262 247 220 228 248 251 228 200 188 185 180 171 181 188 189 176 161 174 181 178 182 182 179 188 192 189 209
83 95 132 168 185 199 278 273 253 257 275 286 296 302 306 301 294 297 291 283 303 326 322 311 299 281 275 271 297 207 193 176 170 171 179 185 182 178 173 185 192 189 195 189 189 194 191 193 205
186 190 174 185 241 215 244 274 300 283 315 309 302 308 312 311 306 307 301 323 347 355 354 348 342 324 289 236 221 236 196 163 165 172 180 179 185 185 182 180 187 196 200 196 195 203 201 202 206